Regional Weather Roundup
Issued by NWS

Current Version | Previous Version | Text Only | Print | Product List | Glossary On
Versions: 1 2 3 4 5 6 7 8 9 10 11 12 13 14 15 16 17 18 19 20 21 22 23 24 25 26 27 28 29 30 31 32 33 34 35 36 37 38 39 40 41 42 43 44 45 46 47 48 49 50
000
ASUS44 KOUN 301900
RWROK

WEATHER ROUNDUP FOR OKLAHOMA
NATIONAL WEATHER SERVICE NORMAN OK
200 PM CDT THU OCT 30 2014

NOTE: "FAIR" INDICATES FEW OR NO CLOUDS BELOW 12,000 FEET WITH NO
      SIGNIFICANT WEATHER AND/OR OBSTRUCTIONS TO VISIBILITY.

OKZ001>007-009>012-014-015-017-302000-
NORTHWEST OKLAHOMA AND THE PANHANDLE

CITY           SKY/WX    TMP DP  RH WIND       PRES   REMARKS
GAGE           SUNNY     73  32  22 N15G23    30.21F
ENID/WOODRING  SUNNY     75  39  27 N17       30.13F
$$

OKZ016-021>023-033>039-044-045-302000-
SOUTHWEST OKLAHOMA

CITY           SKY/WX    TMP DP  RH WIND       PRES   REMARKS
LAWTON/REGL    SUNNY     77  53  43 NW7       30.12F
LAWTON/FT SILL SUNNY     77  53  44 N9        30.11F
FREDERICK      SUNNY     76  53  44 N10       30.10F
CLINTON        SUNNY     76  32  20 N22       30.19F
HOBART         LGT RAIN  75  40  28 NE17      30.16F
$$

OKZ018>020-024>031-302000-
CENTRAL OKLAHOMA

CITY           SKY/WX    TMP DP  RH WIND       PRES   REMARKS
OKLAHOMA CITY  SUNNY     75  40  28 N16G22    30.13F
OKC/WILEY POST SUNNY     75  39  27 N14G22    30.14F
OKC/TINKER AFB SUNNY     73  42  32 N14G23    30.12F
STILLWATER     SUNNY     75  39  27 N14G21    30.12F
GUTHRIE        SUNNY     74  36  25 N10G17    30.13F
$$

OKZ008-013-054>072-302000-
NORTHEAST OKLAHOMA

CITY           SKY/WX    TMP DP  RH WIND       PRES   REMARKS
TULSA          MOSUNNY   73  43  33 NW9       30.07F
TULSA/JONES    MOSUNNY   72  43  35 VRB7      30.08F
PONCA CITY     SUNNY     75  37  25 N21       30.11F
BARTLESVILLE   SUNNY     75  40  28 N7        30.08F
MUSKOGEE       MOSUNNY   73  48  41 W15G23    30.09F
$$

OKZ032-040>043-046>053-073>077-302000-
SOUTH CENTRAL/SOUTHEAST OKLAHOMA

CITY           SKY/WX    TMP DP  RH WIND       PRES   REMARKS
MCALESTER      MOSUNNY   74  48  39 SW16      30.10F
$$




USA.gov is the U.S. government's official web portal to all federal, state and local government web resources and services.